Location: Azat
(46.0765°N, 1.7600°E)
Time: 22:51:24
(UTC+00:00)

STARLINK-1143 - Pass Details

Date: 09 April 2020
Orbit: 549 x 550 km, 53.0° (Epoch: 02 June)

Event Time Altitude Azimuth Distance (km) Brightness Sun altitude
Rises 19:59:47 0° 300° (WNW) 2,728 9.1 -14.9°
Reaches altitude 10° 20:02:04 10° 305° (NW) 1,832 7.7 -15.3°
Maximum altitude 20:06:10 56° 24° (NNE) 658 4.0 -15.9°
Enters shadow 20:08:07 28° 91° (E) 1,047 4.5 -16.2°
